QPF
0.04 0.05 0.03 0.03 0.03 0.04 0.03 0.02 0.03 0.04 0.05 0.05 0.05 0.06 0.07 0.08 0.07 0.07 0.09 0.08 0.08 0.07 0.09 0.11 0.13 0.15 0.16 0.16 0.18 0.20 0.19 0.17 0.17 0.14 0.12 0.11 0.11 0.10 0.11 0.12 0.11 0.10 0.10
0.03 0.07 0.06 0.03 0.02 0.02 0.02 0.02 0.02 0.02 0.03 0.04 0.03 0.03 0.04 0.05 0.06 0.07 0.07 0.06 0.04 0.04 0.04 0.06 0.08 0.10 0.12 0.13 0.16 0.16 0.17 0.17 0.16 0.15 0.16 0.15 0.12 0.11 0.10 0.11 0.11 0.13 0.15
0.01 0.02 0.02 0.02 0.01 0.01 0.01 0.01 0.01 0.02 0.02 0.02 0.02 0.02 0.03 0.05 0.04 0.04 0.04 0.02 0.02 0.01 0.02 0.03 0.05 0.07 0.09 0.11 0.15 0.17 0.18 0.19 0.20 0.21 0.21 0.18 0.14 0.12 0.11 0.10 0.12 0.15 0.17
0.01 0.01 0.00 0.01 0.01 0.01 0.01 0.01 0.01 0.01 0.02 0.02 0.02 0.03 0.03 0.04 0.03 0.03 0.03 0.02 0.02 0.02 0.02 0.03 0.05 0.07 0.08 0.09 0.11 0.14 0.18 0.19 0.18 0.17 0.16 0.14 0.13 0.12 0.11 0.10 0.12 0.15 0.17
0.01 0.01 0.00 0.01 0.01 0.00 0.00 0.01 0.01 0.01 0.01 0.02 0.02 0.03 0.04 0.04 0.05 0.05 0.06 0.06 0.04 0.03 0.03 0.04 0.05 0.08 0.10 0.10 0.11 0.12 0.13 0.15 0.15 0.14 0.13 0.11 0.11 0.10 0.09 0.10 0.13 0.15 0.16
0.01 0.01 0.01 0.01 0.01 0.01 0.00 0.01 0.01 0.01 0.01 0.01 0.01 0.02 0.03 0.04 0.05 0.05 0.06 0.06 0.05 0.04 0.03 0.03 0.05 0.08 0.09 0.09 0.09 0.09 0.10 0.13 0.15 0.17 0.14 0.12 0.12 0.12 0.12 0.14 0.16 0.17 0.17
0.02 0.02 0.01 0.00 0.00 0.00 0.00 0.00 0.01 0.01 0.01 0.01 0.01 0.02 0.02 0.03 0.04 0.04 0.04 0.04 0.03 0.02 0.02 0.03 0.04 0.05 0.08 0.07 0.06 0.05 0.06 0.09 0.13 0.16 0.16 0.13 0.13 0.13 0.15 0.16 0.17 0.17 0.16
0.01 0.01 0.01 0.00 0.01 0.00 0.00 0.01 0.01 0.01 0.01 0.01 0.02 0.02 0.02 0.02 0.03 0.03 0.03 0.03 0.02 0.02 0.02 0.03 0.03 0.04 0.04 0.03 0.04 0.05 0.05 0.06 0.08 0.10 0.12 0.12 0.11 0.12 0.13 0.12 0.13 0.14 0.14
0.01 0.01 0.01 0.01 0.01 0.01 0.02 0.02 0.02 0.03 0.03 0.02 0.02 0.02 0.02 0.02 0.03 0.03 0.03 0.02 0.02 0.02 0.02 0.02 0.03 0.03 0.03 0.02 0.02 0.04 0.04 0.03 0.04 0.06 0.06 0.07 0.08 0.09 0.11 0.11 0.10 0.11 0.12
0.00 0.01 0.01 0.01 0.01 0.02 0.03 0.03 0.03 0.03 0.03 0.01 0.01 0.01 0.02 0.03 0.03 0.03 0.03 0.02 0.02 0.02 0.02 0.03 0.03 0.03 0.03 0.03 0.03 0.03 0.04 0.04 0.04 0.05 0.06 0.08 0.09 0.09 0.08 0.08 0.08 0.08 0.09
0.01 0.01 0.01 0.01 0.01 0.01 0.01 0.01 0.01 0.01 0.01 0.01 0.01 0.02 0.02 0.03 0.03 0.03 0.03 0.03 0.02 0.01 0.02 0.02 0.03 0.03 0.03 0.03 0.03 0.04 0.04 0.05 0.06 0.06 0.07 0.08 0.09 0.07 0.06 0.06 0.07 0.07 0.08
0.01 0.01 0.01 0.01 0.01 0.01 0.01 0.00 0.00 0.01 0.00 0.01 0.01 0.03 0.03 0.03 0.03 0.03 0.02 0.02 0.01 0.01 0.01 0.01 0.02 0.01 0.02 0.02 0.03 0.03 0.04 0.05 0.07 0.08 0.08 0.08 0.08 0.07 0.06 0.05 0.06 0.06 0.08
0.02 0.02 0.02 0.03 0.03 0.02 0.01 0.01 0.01 0.01 0.01 0.01 0.02 0.03 0.02 0.03 0.03 0.03 0.02 0.01 0.01 0.01 0.02 0.03 0.03 0.03 0.02 0.02 0.02 0.02 0.03 0.05 0.07 0.08 0.10 0.11 0.11 0.09 0.07 0.06 0.05 0.06 0.07
0.01 0.01 0.02 0.02 0.01 0.01 0.01 0.02 0.02 0.02 0.01 0.01 0.02 0.02 0.02 0.02 0.03 0.03 0.02 0.01 0.01 0.02 0.03 0.05 0.03 0.03 0.04 0.05 0.04 0.03 0.05 0.05 0.06 0.07 0.08 0.09 0.11 0.09 0.06 0.05 0.04 0.06 0.07
0.01 0.02 0.02 0.02 0.01 0.02 0.03 0.03 0.03 0.02 0.02 0.02 0.02 0.02 0.02 0.02 0.03 0.03 0.03 0.02 0.01 0.01 0.02 0.05 0.06 0.06 0.05 0.06 0.07 0.06 0.06 0.07 0.07 0.06 0.05 0.05 0.06 0.07 0.05 0.03 0.03 0.03 0.05
0.01 0.02 0.02 0.03 0.03 0.03 0.03 0.03 0.03 0.02 0.02 0.02 0.02 0.02 0.02 0.02 0.02 0.03 0.03 0.03 0.03 0.03 0.03 0.05 0.06 0.08 0.07 0.07 0.06 0.05 0.06 0.07 0.06 0.05 0.04 0.04 0.05 0.04 0.05 0.03 0.02 0.02 0.04
0.01 0.02 0.03 0.04 0.05 0.04 0.04 0.03 0.02 0.02 0.02 0.02 0.01 0.02 0.02 0.02 0.02 0.02 0.02 0.03 0.05 0.05 0.05 0.06 0.07 0.06 0.06 0.06 0.05 0.04 0.04 0.05 0.05 0.05 0.04 0.03 0.02 0.03 0.05 0.04 0.03 0.03 0.03
0.02 0.02 0.03 0.03 0.03 0.02 0.02 0.03 0.03 0.02 0.01 0.01 0.01 0.01 0.02 0.03 0.03 0.04 0.06 0.06 0.06 0.07 0.07 0.07 0.07 0.05 0.04 0.03 0.03 0.03 0.05 0.05 0.04 0.04 0.05 0.04 0.03 0.01 0.02 0.04 0.04 0.04 0.03
0.03 0.03 0.04 0.04 0.03 0.02 0.03 0.04 0.03 0.03 0.02 0.03 0.02 0.02 0.02 0.03 0.04 0.06 0.08 0.08 0.07 0.07 0.07 0.07 0.07 0.06 0.05 0.04 0.04 0.03 0.05 0.05 0.04 0.03 0.03 0.03 0.02 0.01 0.01 0.03 0.06 0.06 0.04
0.06 0.05 0.04 0.04 0.04 0.04 0.04 0.04 0.04 0.04 0.04 0.03 0.03 0.03 0.03 0.04 0.06 0.06 0.07 0.08 0.08 0.07 0.06 0.05 0.05 0.05 0.06 0.04 0.03 0.03 0.05 0.05 0.05 0.04 0.03 0.02 0.01 0.02 0.02 0.04 0.06 0.06 0.05
0.06 0.06 0.06 0.06 0.05 0.04 0.04 0.04 0.05 0.06 0.04 0.03 0.03 0.03 0.05 0.05 0.05 0.07 0.09 0.09 0.09 0.07 0.06 0.06 0.05 0.03 0.02 0.02 0.02 0.02 0.03 0.05 0.07 0.06 0.05 0.03 0.02 0.02 0.02 0.03 0.04 0.02 0.03
0.04 0.04 0.04 0.04 0.04 0.05 0.05 0.06 0.06 0.05 0.03 0.03 0.03 0.03 0.04 0.03 0.04 0.06 0.07 0.07 0.08 0.07 0.06 0.06 0.05 0.03 0.01 0.01 0.01 0.01 0.01 0.02 0.05 0.05 0.04 0.03 0.02 0.01 0.01 0.01 0.01 0.01 0.02
0.03 0.03 0.03 0.03 0.05 0.06 0.07 0.07 0.04 0.03 0.03 0.03 0.03 0.04 0.03 0.04 0.04 0.04 0.05 0.05 0.06 0.06 0.05 0.05 0.04 0.02 0.01 0.00 0.00 0.01 0.01 0.01 0.03 0.02 0.01 0.01 0.01 0.01 0.01 0.01 0.02 0.02 0.04
0.03 0.03 0.04 0.04 0.05 0.06 0.05 0.04 0.03 0.02 0.03 0.04 0.04 0.04 0.04 0.04 0.03 0.03 0.03 0.03 0.04 0.04 0.04 0.04 0.03 0.02 0.01 0.01 0.01 0.01 0.01 0.01 0.01 0.02 0.02 0.02 0.02 0.03 0.03 0.03 0.04 0.04 0.03
0.03 0.04 0.05 0.04 0.03 0.03 0.03 0.02 0.02 0.03 0.03 0.03 0.03 0.03 0.03 0.03 0.03 0.03 0.02 0.03 0.03 0.03 0.03 0.03 0.02 0.02 0.01 0.00 0.00 0.00 0.00 0.01 0.01 0.02 0.03 0.04 0.04 0.04 0.04 0.04 0.04 0.03 0.03
0.03 0.04 0.05 0.04 0.04 0.04 0.03 0.03 0.02 0.03 0.03 0.03 0.02 0.02 0.02 0.02 0.01 0.01 0.01 0.01 0.01 0.01 0.01 0.01 0.01 0.00 0.00 0.00 0.00 0.00 0.00 0.00 0.00 0.01 0.03 0.03 0.03 0.03 0.03 0.03 0.02 0.01 0.02
MSLP
1012.98 1013.55 1013.86 1013.91 1013.73 1013.41 1013.06 1012.76 1012.59 1012.58 1012.73 1013.01 1013.36 1013.71 1014.03 1014.27 1014.43 1014.54 1014.61 1014.70 1014.83 1015.02 1015.27 1015.59 1015.93 1016.28 1016.61 1016.92 1017.19 1017.45 1017.70 1017.96 1018.26 1018.59 1018.96 1019.33 1019.70 1020.03 1020.32 1020.56 1020.75 1020.91 1021.06
1012.91 1013.62 1014.06 1014.22 1014.12 1013.86 1013.52 1013.22 1013.03 1013.00 1013.12 1013.37 1013.68 1013.99 1014.25 1014.43 1014.52 1014.56 1014.58 1014.63 1014.74 1014.94 1015.22 1015.58 1015.96 1016.34 1016.69 1016.99 1017.24 1017.46 1017.67 1017.91 1018.20 1018.54 1018.94 1019.37 1019.81 1020.22 1020.59 1020.89 1021.11 1021.29 1021.43
1012.44 1013.28 1013.87 1014.18 1014.23 1014.09 1013.85 1013.61 1013.46 1013.43 1013.54 1013.75 1014.02 1014.27 1014.47 1014.58 1014.61 1014.59 1014.56 1014.58 1014.68 1014.88 1015.19 1015.57 1015.98 1016.37 1016.72 1016.99 1017.20 1017.36 1017.52 1017.71 1017.98 1018.33 1018.76 1019.26 1019.79 1020.30 1020.77 1021.15 1021.46 1021.68 1021.84
1011.69 1012.64 1013.39 1013.88 1014.12 1014.16 1014.07 1013.95 1013.87 1013.88 1013.99 1014.18 1014.40 1014.60 1014.73 1014.77 1014.74 1014.67 1014.60 1014.59 1014.68 1014.89 1015.20 1015.59 1015.99 1016.38 1016.69 1016.91 1017.06 1017.16 1017.25 1017.40 1017.64 1017.99 1018.46 1019.03 1019.64 1020.27 1020.84 1021.34 1021.74 1022.03 1022.24
1010.83 1011.86 1012.75 1013.43 1013.88 1014.13 1014.23 1014.25 1014.28 1014.35 1014.48 1014.66 1014.83 1014.98 1015.05 1015.04 1014.95 1014.84 1014.74 1014.71 1014.78 1014.97 1015.27 1015.64 1016.01 1016.35 1016.61 1016.77 1016.85 1016.88 1016.91 1017.00 1017.21 1017.56 1018.06 1018.68 1019.39 1020.11 1020.80 1021.41 1021.90 1022.29 1022.57
1010.02 1011.09 1012.11 1012.96 1013.61 1014.07 1014.36 1014.54 1014.68 1014.83 1014.98 1015.15 1015.30 1015.41 1015.44 1015.39 1015.27 1015.13 1015.01 1014.95 1015.00 1015.16 1015.41 1015.73 1016.05 1016.32 1016.51 1016.59 1016.59 1016.55 1016.52 1016.57 1016.75 1017.10 1017.61 1018.27 1019.03 1019.83 1020.61 1021.32 1021.91 1022.38 1022.74
1009.37 1010.46 1011.55 1012.55 1013.37 1014.01 1014.48 1014.81 1015.06 1015.27 1015.46 1015.63 1015.77 1015.86 1015.87 1015.81 1015.68 1015.53 1015.40 1015.32 1015.33 1015.44 1015.63 1015.86 1016.10 1016.28 1016.39 1016.40 1016.33 1016.23 1016.15 1016.16 1016.31 1016.64 1017.15 1017.82 1018.61 1019.45 1020.29 1021.06 1021.73 1022.27 1022.71
1008.94 1010.01 1011.15 1012.25 1013.21 1013.99 1014.60 1015.05 1015.38 1015.65 1015.87 1016.06 1016.20 1016.29 1016.31 1016.26 1016.15 1016.01 1015.88 1015.78 1015.75 1015.79 1015.90 1016.04 1016.17 1016.27 1016.28 1016.23 1016.10 1015.96 1015.84 1015.83 1015.95 1016.25 1016.74 1017.39 1018.16 1019.00 1019.85 1020.64 1021.35 1021.95 1022.44
1008.73 1009.78 1010.94 1012.09 1013.14 1014.01 1014.71 1015.23 1015.63 1015.93 1016.17 1016.38 1016.54 1016.66 1016.71 1016.70 1016.63 1016.52 1016.39 1016.28 1016.21 1016.18 1016.20 1016.24 1016.28 1016.28 1016.23 1016.11 1015.96 1015.79 1015.66 1015.62 1015.72 1015.99 1016.42 1017.02 1017.74 1018.53 1019.34 1020.12 1020.83 1021.45 1021.99
1008.72 1009.75 1010.91 1012.08 1013.16 1014.08 1014.81 1015.36 1015.78 1016.09 1016.35 1016.57 1016.77 1016.92 1017.03 1017.08 1017.07 1017.00 1016.89 1016.78 1016.67 1016.58 1016.52 1016.47 1016.43 1016.35 1016.25 1016.10 1015.93 1015.76 1015.64 1015.59 1015.67 1015.89 1016.26 1016.78 1017.40 1018.11 1018.84 1019.56 1020.23 1020.85 1021.40
1008.89 1009.91 1011.07 1012.23 1013.30 1014.20 1014.92 1015.47 1015.87 1016.18 1016.43 1016.67 1016.89 1017.09 1017.26 1017.37 1017.42 1017.41 1017.34 1017.23 1017.10 1016.96 1016.84 1016.72 1016.62 1016.50 1016.37 1016.22 1016.07 1015.92 1015.81 1015.77 1015.83 1016.00 1016.29 1016.70 1017.21 1017.80 1018.42 1019.05 1019.67 1020.25 1020.79
1009.24 1010.27 1011.42 1012.55 1013.57 1014.43 1015.10 1015.59 1015.95 1016.23 1016.47 1016.71 1016.95 1017.19 1017.41 1017.59 1017.70 1017.74 1017.71 1017.61 1017.47 1017.31 1017.15 1017.00 1016.86 1016.73 1016.60 1016.48 1016.36 1016.25 1016.17 1016.14 1016.17 1016.29 1016.50 1016.80 1017.19 1017.64 1018.15 1018.67 1019.21 1019.75 1020.27
1009.80 1010.85 1011.97 1013.05 1014.01 1014.79 1015.38 1015.80 1016.10 1016.33 1016.54 1016.76 1017.01 1017.28 1017.54 1017.76 1017.93 1018.01 1018.01 1017.93 1017.80 1017.63 1017.46 1017.30 1017.15 1017.03 1016.94 1016.85 1016.78 1016.72 1016.67 1016.65 1016.67 1016.74 1016.87 1017.06 1017.33 1017.66 1018.04 1018.47 1018.92 1019.41 1019.90
1010.59 1011.65 1012.74 1013.75 1014.62 1015.30 1015.79 1016.13 1016.35 1016.52 1016.69 1016.89 1017.14 1017.41 1017.69 1017.95 1018.14 1018.26 1018.28 1018.22 1018.10 1017.94 1017.78 1017.62 1017.50 1017.41 1017.36 1017.32 1017.30 1017.28 1017.27 1017.25 1017.25 1017.27 1017.33 1017.43 1017.59 1017.81 1018.09 1018.43 1018.82 1019.25 1019.72
1011.61 1012.67 1013.71 1014.63 1015.39 1015.96 1016.35 1016.59 1016.74 1016.85 1016.98 1017.15 1017.37 1017.64 1017.92 1018.18 1018.39 1018.51 1018.55 1018.51 1018.40 1018.26 1018.11 1017.98 1017.89 1017.84 1017.83 1017.84 1017.86 1017.88 1017.88 1017.87 1017.84 1017.82 1017.82 1017.85 1017.92 1018.07 1018.27 1018.55 1018.89 1019.28 1019.72
1012.82 1013.85 1014.80 1015.62 1016.26 1016.71 1017.00 1017.15 1017.23 1017.29 1017.38 1017.52 1017.72 1017.97 1018.24 1018.49 1018.69 1018.81 1018.85 1018.82 1018.72 1018.60 1018.48 1018.38 1018.32 1018.31 1018.33 1018.37 1018.42 1018.45 1018.46 1018.44 1018.39 1018.33 1018.28 1018.26 1018.29 1018.38 1018.54 1018.78 1019.09 1019.46 1019.88
1014.12 1015.07 1015.92 1016.61 1017.13 1017.47 1017.66 1017.74 1017.77 1017.79 1017.86 1017.98 1018.17 1018.40 1018.65 1018.88 1019.06 1019.17 1019.21 1019.17 1019.09 1018.99 1018.89 1018.81 1018.78 1018.79 1018.83 1018.89 1018.94 1018.98 1018.97 1018.93 1018.86 1018.78 1018.70 1018.65 1018.65 1018.72 1018.87 1019.09 1019.39 1019.74 1020.14
1015.38 1016.22 1016.93 1017.49 1017.88 1018.11 1018.22 1018.25 1018.25 1018.27 1018.33 1018.46 1018.65 1018.87 1019.11 1019.32 1019.49 1019.59 1019.62 1019.59 1019.52 1019.43 1019.35 1019.30 1019.28 1019.30 1019.35 1019.40 1019.44 1019.45 1019.43 1019.36 1019.27 1019.17 1019.08 1019.02 1019.02 1019.09 1019.23 1019.46 1019.75 1020.09 1020.47
1016.45 1017.15 1017.72 1018.13 1018.40 1018.55 1018.60 1018.61 1018.61 1018.65 1018.74 1018.89 1019.10 1019.33 1019.57 1019.79 1019.95 1020.05 1020.08 1020.06 1020.00 1019.93 1019.87 1019.83 1019.83 1019.85 1019.88 1019.91 1019.93 1019.91 1019.86 1019.77 1019.66 1019.54 1019.45 1019.40 1019.40 1019.49 1019.65 1019.88 1020.17 1020.49 1020.85
1017.24 1017.79 1018.21 1018.50 1018.66 1018.74 1018.77 1018.78 1018.81 1018.89 1019.03 1019.23 1019.48 1019.74 1020.00 1020.23 1020.40 1020.51 1020.56 1020.56 1020.52 1020.48 1020.43 1020.41 1020.41 1020.42 1020.44 1020.45 1020.44 1020.39 1020.31 1020.19 1020.07 1019.95 1019.86 1019.81 1019.84 1019.93 1020.10 1020.34 1020.62 1020.92 1021.23
1017.72 1018.12 1018.41 1018.58 1018.67 1018.71 1018.73 1018.77 1018.85 1018.99 1019.20 1019.46 1019.76 1020.07 1020.37 1020.63 1020.83 1020.96 1021.03 1021.06 1021.06 1021.04 1021.02 1021.02 1021.02 1021.03 1021.04 1021.03 1020.99 1020.91 1020.80 1020.67 1020.53 1020.41 1020.32 1020.29 1020.32 1020.43 1020.60 1020.82 1021.08 1021.35 1021.62
1017.92 1018.20 1018.37 1018.47 1018.51 1018.54 1018.57 1018.65 1018.80 1019.01 1019.29 1019.61 1019.97 1020.33 1020.67 1020.96 1021.19 1021.36 1021.47 1021.53 1021.57 1021.59 1021.60 1021.62 1021.64 1021.65 1021.65 1021.62 1021.56 1021.47 1021.34 1021.20 1021.05 1020.92 1020.84 1020.81 1020.84 1020.94 1021.10 1021.30 1021.52 1021.75 1021.96
1017.93 1018.11 1018.21 1018.26 1018.29 1018.33 1018.40 1018.53 1018.73 1019.01 1019.35 1019.73 1020.14 1020.53 1020.90 1021.22 1021.49 1021.69 1021.84 1021.95 1022.03 1022.08 1022.13 1022.18 1022.22 1022.24 1022.24 1022.20 1022.13 1022.03 1021.89 1021.73 1021.58 1021.45 1021.35 1021.31 1021.33 1021.41 1021.54 1021.70 1021.88 1022.05 1022.21
1017.87 1017.99 1018.06 1018.09 1018.13 1018.20 1018.31 1018.49 1018.75 1019.07 1019.45 1019.87 1020.29 1020.71 1021.09 1021.43 1021.71 1021.94 1022.12 1022.27 1022.39 1022.49 1022.57 1022.65 1022.71 1022.74 1022.75 1022.71 1022.64 1022.52 1022.38 1022.22 1022.05 1021.91 1021.80 1021.74 1021.73 1021.77 1021.85 1021.97 1022.09 1022.21 1022.32
1017.84 1017.94 1018.00 1018.05 1018.12 1018.23 1018.39 1018.61 1018.90 1019.25 1019.64 1020.05 1020.47 1020.87 1021.24 1021.57 1021.86 1022.10 1022.30 1022.47 1022.63 1022.76 1022.88 1022.98 1023.06 1023.11 1023.13 1023.09 1023.02 1022.90 1022.75 1022.57 1022.40 1022.23 1022.10 1022.00 1021.95 1021.95 1021.98 1022.04 1022.12 1022.19 1022.26
1017.89 1017.99 1018.08 1018.17 1018.29 1018.44 1018.64 1018.89 1019.19 1019.53 1019.90 1020.28 1020.65 1021.01 1021.35 1021.65 1021.91 1022.15 1022.35 1022.54 1022.72 1022.88 1023.02 1023.15 1023.25 1023.31 1023.33 1023.30 1023.22 1023.10 1022.93 1022.75 1022.55 1022.36 1022.19 1022.06 1021.96 1021.91 1021.89 1021.91 1021.94 1021.98 1022.02
Thickness
5722 5720 5718 5716 5713 5711 5709 5708 5706 5705 5704 5702 5700 5697 5696 5695 5693 5691 5690 5690 5689 5689 5689 5689 5689 5689 5689 5688 5688 5686 5686 5686 5687 5685 5682 5683 5685 5686 5686 5686 5685 5685 5685
5715 5710 5708 5708 5705 5703 5701 5699 5697 5696 5695 5694 5692 5691 5689 5687 5685 5684 5682 5682 5681 5681 5682 5681 5681 5681 5682 5681 5681 5680 5679 5679 5680 5678 5674 5671 5672 5675 5677 5677 5677 5676 5676
5712 5707 5703 5702 5699 5695 5692 5691 5688 5687 5686 5686 5685 5684 5682 5680 5678 5676 5675 5673 5673 5672 5672 5672 5672 5673 5674 5673 5674 5673 5672 5670 5672 5672 5669 5664 5662 5662 5664 5666 5667 5667 5666
5712 5706 5701 5697 5693 5690 5687 5684 5681 5679 5678 5677 5676 5674 5671 5669 5667 5666 5665 5665 5664 5664 5663 5663 5663 5663 5664 5664 5665 5666 5665 5664 5662 5663 5665 5664 5662 5656 5652 5653 5655 5656 5655
5709 5702 5697 5692 5688 5684 5680 5676 5673 5671 5669 5668 5667 5665 5662 5660 5659 5658 5656 5656 5656 5655 5655 5654 5654 5654 5653 5654 5655 5655 5656 5657 5656 5655 5655 5654 5655 5654 5649 5644 5644 5644 5644
5705 5698 5692 5687 5682 5678 5674 5669 5666 5662 5661 5659 5657 5654 5652 5650 5649 5647 5646 5646 5646 5645 5645 5645 5644 5644 5644 5644 5644 5645 5647 5648 5649 5649 5648 5647 5646 5644 5643 5639 5635 5634 5634
5700 5692 5686 5680 5675 5670 5665 5661 5658 5654 5652 5650 5647 5645 5643 5641 5639 5638 5637 5636 5635 5634 5634 5634 5633 5633 5634 5635 5636 5637 5638 5639 5640 5640 5640 5640 5640 5639 5638 5633 5629 5626 5625
5695 5688 5680 5674 5668 5662 5657 5653 5649 5645 5643 5640 5637 5635 5633 5632 5630 5629 5628 5627 5625 5624 5624 5624 5624 5624 5625 5626 5628 5629 5630 5631 5631 5632 5632 5632 5632 5631 5630 5627 5623 5619 5617
5689 5682 5674 5667 5661 5655 5649 5644 5640 5636 5633 5630 5627 5625 5623 5622 5620 5619 5618 5617 5616 5616 5615 5615 5615 5615 5615 5617 5618 5619 5620 5621 5622 5623 5623 5623 5623 5623 5622 5620 5618 5616 5611
5684 5675 5667 5660 5654 5647 5641 5636 5631 5627 5624 5621 5618 5616 5614 5612 5611 5610 5608 5607 5606 5606 5606 5606 5606 5606 5606 5607 5608 5610 5610 5612 5612 5613 5613 5613 5613 5614 5613 5612 5611 5611 5608
5677 5668 5660 5653 5647 5640 5634 5627 5622 5618 5615 5611 5608 5606 5604 5603 5601 5600 5598 5597 5596 5596 5597 5597 5597 5597 5596 5597 5598 5599 5601 5602 5602 5603 5604 5604 5604 5604 5604 5603 5602 5602 5602
5670 5661 5653 5645 5638 5631 5625 5619 5614 5610 5606 5603 5599 5596 5594 5592 5591 5589 5588 5587 5587 5587 5587 5587 5588 5587 5587 5587 5588 5589 5591 5592 5592 5593 5594 5595 5595 5595 5594 5594 5594 5593 5593
5662 5653 5644 5636 5629 5622 5615 5610 5606 5602 5598 5594 5590 5586 5584 5582 5580 5578 5578 5577 5577 5577 5577 5578 5578 5578 5578 5578 5579 5580 5581 5582 5583 5584 5585 5585 5585 5585 5585 5585 5585 5584 5584
5653 5644 5634 5626 5619 5613 5607 5601 5597 5593 5589 5585 5581 5577 5574 5572 5570 5569 5568 5568 5567 5567 5567 5568 5568 5568 5568 5568 5569 5570 5572 5573 5574 5575 5575 5575 5575 5575 5576 5576 5575 5575 5573
5642 5633 5625 5617 5610 5603 5597 5592 5588 5584 5580 5576 5572 5568 5565 5563 5562 5560 5559 5559 5558 5558 5558 5558 5558 5558 5557 5556 5557 5559 5562 5563 5564 5565 5565 5565 5566 5566 5566 5566 5565 5565 5564
5632 5623 5615 5607 5600 5594 5588 5583 5578 5574 5571 5567 5563 5560 5558 5555 5554 5552 5551 5550 5549 5548 5548 5548 5547 5546 5545 5544 5547 5549 5552 5553 5554 5555 5556 5557 5558 5557 5557 5557 5557 5556 5556
5623 5614 5606 5598 5592 5585 5580 5575 5570 5567 5563 5559 5556 5553 5551 5548 5547 5545 5543 5542 5540 5539 5539 5539 5538 5537 5534 5536 5538 5540 5543 5545 5545 5547 5548 5550 5549 5549 5549 5549 5549 5549 5548
5614 5606 5598 5591 5584 5578 5573 5567 5563 5559 5556 5552 5548 5546 5544 5541 5539 5537 5535 5533 5532 5532 5531 5531 5530 5529 5527 5528 5530 5532 5536 5537 5538 5539 5540 5540 5539 5539 5540 5543 5543 5543 5541
5608 5599 5590 5583 5576 5571 5565 5561 5556 5553 5549 5545 5542 5540 5538 5535 5533 5530 5527 5526 5526 5525 5525 5524 5524 5523 5521 5521 5523 5525 5528 5530 5530 5531 5531 5532 5532 5531 5534 5537 5536 5536 5534
5599 5591 5583 5576 5569 5564 5559 5554 5550 5546 5543 5539 5537 5534 5532 5529 5526 5524 5522 5521 5521 5520 5520 5519 5518 5518 5517 5516 5517 5519 5522 5524 5524 5524 5524 5524 5525 5526 5528 5529 5529 5528 5527
5591 5584 5576 5569 5563 5559 5554 5549 5545 5541 5537 5535 5532 5529 5526 5524 5521 5519 5518 5517 5516 5516 5515 5515 5514 5514 5512 5512 5513 5514 5516 5518 5520 5520 5519 5518 5519 5521 5522 5523 5523 5522 5522
5584 5577 5570 5564 5559 5555 5550 5544 5540 5536 5534 5530 5528 5525 5522 5522 5519 5517 5515 5515 5514 5513 5512 5512 5511 5510 5510 5509 5509 5510 5511 5512 5514 5515 5515 5514 5515 5517 5519 5520 5520 5520 5521
5580 5574 5567 5561 5556 5551 5546 5542 5537 5534 5531 5528 5525 5522 5520 5518 5517 5516 5514 5513 5513 5512 5511 5511 5510 5509 5509 5507 5508 5509 5509 5510 5511 5511 5511 5512 5513 5515 5517 5518 5519 5520 5520
5577 5571 5565 5559 5553 5549 5545 5541 5537 5533 5529 5526 5523 5521 5519 5517 5516 5515 5514 5513 5512 5511 5511 5511 5510 5510 5508 5507 5506 5507 5508 5508 5509 5510 5512 5513 5515 5515 5516 5518 5519 5520 5521
5575 5570 5564 5559 5553 5548 5544 5541 5537 5533 5529 5526 5523 5522 5520 5518 5515 5513 5510 5510 5507 5507 5508 5509 5510 5509 5507 5503 5503 5505 5506 5506 5506 5508 5513 5516 5517 5518 5519 5520 5521 5522 5522
5574 5569 5564 5559 5553 5549 5545 5541 5538 5534 5531 5527 5525 5524 5523 5521 5519 5516 5512 5508 5508 5507 5507 5507 5507 5506 5506 5505 5505 5506 5507 5508 5509 5511 5515 5519 5520 5521 5521 5522 5523 5523 5523